This demonstration page uses our WeatherBlox Daily Observations layout. Learn more.

Left ArrowRight Arrow

Hourly Observations for July 1, 2022

Temp ( °F °C ) Dew Point ( °F °C ) Humidity (%) Winds ( mph kmh ) Pressure ( in mb ) Visibility ( mi km ) Precip ( " mm )
12:53 am 00:53 Clear 57 13.9 51 10.6 81 81 ENE 9 15 30.08 1019 10 16 0.00 0.00
1:53 am 01:53 Clear 56 13.3 49 9.4 77 77 E 7 11 30.10 1019 10 16 0.00 0.00
2:53 am 02:53 Clear 56 13.3 49 9.4 77 77 Calm 30.05 1018 10 16 0.00 0.00
3:53 am 03:53 Clear 56 13.3 48 8.9 75 75 ENE 12 19 30.03 1017 10 16 0.00 0.00
4:53 am 04:53 Clear 55 12.8 48 8.9 77 77 VRB 3 6 30.06 1018 10 16 0.00 0.00
5:53 am 05:53 Sunny 50 10 47 8.3 89 89 Calm 30.14 1021 10 16 0.00 0.00
6:53 am 06:53 Sunny 52 11.1 48 8.9 86 86 Calm 30.15 1021 10 16 0.00 0.00
7:53 am 07:53 Sunny 58 14.4 49 9.4 72 72 undefined N/A 30.12 1020 10 16 0.00 0.00
8:53 am 08:53 Sunny 64 17.8 51 10.6 63 63 E 9 15 30.10 1019 10 16 0.00 0.00
9:53 am 09:53 Sunny 68 20 51 10.6 55 55 VRB 3 6 30.10 1019 10 16 0.00 0.00
10:53 am 10:53 Sunny 72 22.2 51 10.6 48 48 ENE 6 9 30.06 1018 10 16 0.00 0.00
11:53 am 11:53 Sunny 76 24.4 52 11.1 43 43 VRB 3 6 30.03 1017 10 16 0.00 0.00
12:53 pm 12:53 undefined 78 25.6 50 10 37 37 VRB 3 6 30.00 1016 10 16 0.00 0.00
1:53 pm 13:53 Sunny 81 27.2 50 10 34 34 undefined N/A 29.98 1015 10 16 0.00 0.00
2:53 pm 14:53 Mostly Sunny 79 26.1 48 8.9 34 34 Calm 29.95 1014 10 16 0.00 0.00
3:53 pm 15:53 Sunny 83 28.3 48 8.9 30 30 NW 9 15 29.91 1013 10 16 0.00 0.00
4:53 pm 16:53 Sunny 83 28.3 46 7.8 27 27 WNW 8 13 29.91 1013 10 16 0.00 0.00
5:53 pm 17:53 Sunny 82 27.8 46 7.8 28 28 W 8 13 29.92 1013 10 16 0.00 0.00
6:53 pm 18:53 Partly Cloudy with Nearby Thunderstorms 71 21.7 46 7.8 41 41 N 21 33 29.96 1015 10 16 0.00 0.00
7:09 pm 19:09 Sunny 70 21.1 46 7.8 42 42 N 12 19 29.73 1007 10 16 0.00 0.00
7:53 pm 19:53 Cloudy 71 21.7 47 8.3 42 42 Calm 29.98 1015 10 16 0.00 0.00
8:53 pm 20:53 Cloudy 66 18.9 49 9.4 54 54 SSE 14 22 30.00 1016 10 16 0.00 0.00
9:53 pm 21:53 Mostly Cloudy 65 18.3 49 9.4 56 56 SSE 10 17 30.01 1016 10 16 0.00 0.00
10:53 pm 22:53 Clear 63 17.2 51 10.6 65 65 E 9 15 29.99 1016 10 16 0.00 0.00
11:53 pm 23:53 Clear 61 16.1 51 10.6 70 70 E 3 6 30.00 1016 10 16 0.00 0.00

Powered by AerisWeather